Regional Weather Roundup
Issued by NWS

Home | Current Version | Previous Version | Graphics & Text | Print | Product List | Glossary On
Versions: 1 2 3 4 5 6 7 8 9 10 11 12 13 14 15 16 17 18 19 20 21 22 23 24 25 26 27 28 29 30 31 32 33 34 35 36 37 38 39 40 41 42 43 44 45 46 47 48 49 50
000
ASUS43 KOAX 181302
RWRNE

WEATHER ROUNDUP FOR NEBRASKA
NATIONAL WEATHER SERVICE OMAHA NE
800 AM CDT THU SEP 18 2014

NOTES: SATELLITE DATA IS BEING USED TO AUGMENT CLOUD COVER ABOVE
       12000 FEET.
       "FAIR" INDICATES FEW OR NO CLOUDS BELOW 12,000 FEET WITH NO
       SIGNIFICANT WEATHER AND/OR OBSTRUCTIONS TO VISIBILITY.

  * THESE STATIONS DO NOT REPORT WEATHER SUCH AS RAIN...SNOW OR FOG.

NEZ001>004-019>022-054>056-181400-
NEBRASKA PANHANDLE

CITY           SKY/WX    TMP DP  RH WIND       PRES   REMARKS
SCOTTSBLUFF    FOG       54  54 100 CALM      29.96R VSB<1/4
ALLIANCE       CLOUDY    61  60  97 S14       29.95R FOG
CHADRON        FOG       47  46  97 W6        29.92R VSB 1
KIMBALL        CLEAR     49  42  75 SW8       30.00S
SIDNEY         FOG       57  55  93 CALM      30.00R VSB<1/4
$$

NEZ057>060-069>072-079>082-181400-
SOUTHWEST NEBRASKA

CITY           SKY/WX    TMP DP  RH WIND       PRES   REMARKS
NORTH PLATTE   CLOUDY    59  59 100 SE7       29.97S FOG
IMPERIAL       FOG       63  62  97 SE9       29.98R VSB 1/2
LEXINGTON      CLOUDY    60  60  98 SE8       29.98R FOG
MCCOOK         FOG       63  62  97 E8        29.96R VSB 1/2
OGALLALA       FOG       64  64  99 E7        29.97R VSB 1/4
$$

NEZ005>010-023>029-035>040-094-181400-
NORTH CENTRAL NEBRASKA

CITY           SKY/WX    TMP DP  RH WIND       PRES   REMARKS
VALENTINE      CLOUDY    62  61  96 S9        29.94S FOG
AINSWORTH      CLOUDY    60  60 100 S15       29.96R FOG
BROKEN BOW     FOG       61  60  97 S9        29.98R VSB 3/4
O`NEILL        MOCLDY    61  61  99 S9        29.97R FOG
ORD            FOG       60  60 100 S8        29.96S VSB 3/4
THEDFORD       CLOUDY    60  60  98 S12       29.97R
$$

NEZ041-046>049-061>064-073>077-083>087-181400-
SOUTH CENTRAL NEBRASKA

CITY           SKY/WX    TMP DP  RH WIND       PRES   REMARKS
GRAND ISLAND   FOG       61  60  97 SE12      29.99R VSB 1/4
AURORA         FOG       61  61 100 SE8       29.99R VSB 1/4
HASTINGS       CLOUDY    61  58  90 SE14G21   29.98S FOG
HEBRON         CLOUDY    63  60  92 E7        30.00R FOG
HOLDREGE       CLOUDY    61  59  94 SE10      29.98R FOG
KEARNEY *      CLOUDY    61  59  94 E9        29.99R
YORK           FOG       63  63 100 S8        29.99R VSB 3/4
$$

NEZ011>018-030>034-042>045-181400-
NORTHEAST NEBRASKA

CITY           SKY/WX    TMP DP  RH WIND       PRES   REMARKS
NORFOLK        CLOUDY    61  60  97 SE5       30.00R FOG
ALBION         FOG       59  57  93 SE5       29.99S VSB<1/4
BLAIR          FOG       60  58  94 E9        30.01S VSB 3/4
COLUMBUS *     CLOUDY    63  61  94 SE7       30.01R
FREMONT        PTCLDY    61  60  95 E7        30.01S FOG
TEKAMAH        PTCLDY    55  54  96 CALM      30.02R FOG
WAYNE          PTCLDY    59  58  97 S5        30.01R FOG
$$

NEZ050>053-065>068-078-088>093-181400-
SOUTHEAST NEBRASKA

CITY           SKY/WX    TMP DP  RH WIND       PRES   REMARKS
LINCOLN        CLOUDY    63  61  93 SE13      30.01R FOG
OMAHA EPPLEY   CLOUDY    60  57  89 SE9       30.03R FOG
BEATRICE       CLOUDY    63  62  95 E8        30.01R FOG
FALLS CITY     PTCLDY    60  60 100 E7        30.00R FOG
NEBRASKA CITY  CLOUDY    63  61  94 SE8       30.03R FOG
PLATTSMOUTH    CLOUDY    61  59  94 SE3       30.03S FOG
$$

NEZ044-045-051>053-067-181400-
OMAHA AREA

CITY           SKY/WX    TMP DP  RH WIND       PRES   REMARKS
OMAHA EPPLEY   CLOUDY    60  57  89 SE9       30.03R FOG
BLAIR          FOG       60  58  94 E9        30.01S VSB 3/4
FREMONT        PTCLDY    61  60  95 E7        30.01S FOG
MILLARD        CLOUDY    61  59  93 SE9       30.03R FOG
OFFUTT AFB     CLOUDY    61  61 100 E9        30.03R
PLATTSMOUTH    CLOUDY    61  59  94 SE3       30.03S FOG
WAHOO          FOG       59  57  92 SE6       30.01R VSB<1/4
$$


USA.gov is the U.S. government's official web portal to all federal, state and local government web resources and services.